Regional Weather Roundup
Issued by NWS Jackson, KY

Home | Current Version | Previous Version | Text Only | Print | Product List | Glossary On
Versions: 1 2 3 4 5 6 7 8 9 10 11 12 13 14 15 16 17 18 19 20 21 22 23 24 25 26 27 28 29 30 31 32 33 34 35 36 37 38 39 40 41 42 43 44 45 46 47 48 49 50
000
ASUS43 KJKL 051010
RWRJKL

EAST KENTUCKY HOURLY WEATHER ROUNDUP
NATIONAL WEATHER SERVICE JACKSON KY
600 AM EDT TUE MAY 05 2015

NOTE: "FAIR" INDICATES FEW OR NO CLOUDS BELOW 12,000 FEET WITH
NO SIGNIFICANT WEATHER AND/OR OBSTRUCTIONS TO VISIBILITY.

* THESE REPORTS ARE NOT UNDER NWS QUALITY CONTROL AND MAY NOT
  REPORT WEATHER SUCH AS PRECIPITATION AND FOG.

KYZ079-080-083-085-087-088-110-112-115-119-120-051100
...EASTERN KENTUCKY...

CITY           SKY/WX    TMP DP  RH WIND       PRES   REMARKS
JACKSON        CLOUDY    60  50  69 CALM      30.29R
LONDON         PTCLDY    55  50  83 CALM      30.29R
SOMERSET*      CLEAR     52  52 100 CALM      30.30R
MONTICELLO*    CLEAR     53  53 100 CALM      30.31R
MIDDLESBORO*   CLEAR     49  49 100 CALM      30.32S
HARLAN APT*    SUNNY     50  50 100 CALM      30.33R
HAZARD APT*    MOSUNNY   59  52  77 CALM      30.30R
BLACK MTN*       N/A     57  46  67 SW2         N/A
PIKEVILLE APT* CLEAR     59  50  72 S5        30.30R
BIG SANDY*     SUNNY     60  53  76 SW3       30.28R
MOREHEAD APT*  MOSUNNY   63  52  67 SW7       30.28R
$$

KYZ035-036-041-042-044-050-067-078-099-051100
...CENTRAL KENTUCKY...

CITY           SKY/WX    TMP DP  RH WIND       PRES   REMARKS
MT STERLING*   CLEAR     61  52  72 SW7       30.28R
FLEMING/MASON* CLEAR     61  54  77 S6        30.26R
DANVILLE*      CLEAR     55  52  88 S5        30.28R
RICHMOND*      CLEAR     63  50  63 S7        30.27R
LEXINGTON      CLEAR     60  52  74 S6        30.26R
FRANKFORT      CLEAR     57  52  83 CALM      30.24R
$$

KYZ091>093-OHZ055-061-077-WVZ005-015-034-035-042-051100
...SOUTHERN OHIO/WEST VIRGINIA...

CITY           SKY/WX    TMP DP  RH WIND       PRES   REMARKS
COVINGTON      PTCLDY    60  56  86 CALM      30.23S
COLUMBUS       CLOUDY    62  60  93 CALM      30.23R
DAYTON         CLOUDY    62  60  93 S5        30.24R
WILMINGTON     CLOUDY    60  57  89 CALM      30.24R
HUNTINGTON     PTCLDY    59  53  80 S6        30.24R
CHARLESTON       N/A     59  54  83 CALM      30.25R
PINEVILLE*     CLEAR     50  50 100 MISG      30.35S
BECKLEY        CLEAR     55  44  66 S3        30.32R
BLUEFIELD      CLEAR     61  45  55 W6        30.35R
$$

VAZ002-007-008-TNZ017-027-036-066-071-051100
...SOUTHWEST VIRGINIA/EAST TENNESSEE...

CITY           SKY/WX    TMP DP  RH WIND       PRES   REMARKS
WISE*          CLEAR     54  43  66 SW6       30.35S
JONESVILLE*    SUNNY     48  48 100 CALM      30.34R
ABINGDON*      CLEAR     53  49  87 CALM      30.34R
BRISTOL        CLEAR     49  48  97 CALM      30.33R FOG
KNOXVILLE      PTCLDY    56  53  90 CALM      30.29
OAK RIDGE      CLEAR     54  51  90 CALM      30.31S
CROSSVILLE     CLEAR     52  48  86 CALM      30.32R
NASHVILLE      PTCLDY    59  53  80 CALM      30.26R
$$

...KEY TO REMARKS...
VSB - VISIBILITY IN MILES
WCI - WIND CHILL INDEX
HX  - HEAT INDEX

$$


USA.gov is the U.S. government's official web portal to all federal, state and local government web resources and services.